Total_Precipitation_Accumulation
2.62 2.63 2.67 2.69 2.52 2.61 2.79 3.05 2.91 2.99 3.06 2.84 2.54 2.40 2.52 2.61 2.70 2.79 2.90 3.07 2.97 3.03 3.60 3.80 3.44 3.03 2.85 2.41 2.17 1.87 1.66 1.54 1.37 1.10 0.95 0.98 1.05 1.13 1.08 0.95 0.90 0.86 0.76
2.94 2.90 2.71 2.75 2.61 2.57 2.69 2.95 2.99 3.35 3.37 3.32 2.85 2.62 2.66 2.70 2.74 2.88 2.85 3.15 3.08 2.92 3.28 3.66 3.70 3.46 3.23 2.97 2.69 2.35 2.07 1.92 1.71 1.37 1.19 1.10 1.12 1.19 1.15 1.16 1.09 1.04 0.98
3.02 2.97 2.90 2.74 2.69 2.74 2.95 3.02 3.04 3.31 3.35 3.31 3.19 2.94 2.79 2.55 2.43 2.55 2.60 2.77 2.77 2.76 2.98 3.34 3.60 3.65 3.61 3.45 3.31 3.07 2.66 2.31 2.02 1.68 1.39 1.19 1.09 1.16 1.18 1.21 1.22 1.21 1.18
2.94 3.07 2.89 2.66 2.74 2.70 2.88 3.21 3.34 3.52 3.73 3.72 3.45 3.13 2.90 2.77 2.53 2.47 2.36 2.37 2.64 2.34 2.62 3.05 3.29 3.45 3.86 4.08 4.19 4.15 3.65 2.97 2.39 2.08 1.78 1.49 1.28 1.22 1.19 1.23 1.27 1.24 1.16
2.78 2.98 2.85 2.78 2.80 2.97 3.00 2.79 3.42 3.77 3.92 3.89 3.23 3.08 2.72 2.59 2.43 2.25 2.31 2.17 2.36 2.45 2.54 2.58 2.73 2.96 3.71 4.52 4.92 5.00 4.77 3.92 3.10 2.67 2.40 2.07 1.74 1.50 1.30 1.29 1.31 1.20 1.06
2.68 2.98 2.72 2.73 2.86 3.16 3.25 3.32 3.76 3.85 3.72 3.91 3.23 2.85 2.45 2.10 2.04 2.05 1.92 1.97 2.03 1.99 2.21 2.66 3.01 2.73 3.22 3.90 4.33 4.66 5.01 4.86 4.16 3.36 2.95 2.63 2.38 2.05 1.70 1.53 1.46 1.38 1.22
2.81 3.26 2.91 3.18 3.09 3.15 3.19 3.36 3.65 3.64 3.43 3.75 3.76 3.06 2.25 1.77 1.75 1.65 1.64 1.77 1.74 1.73 2.00 2.57 2.96 3.01 2.79 2.69 2.94 3.45 4.18 4.72 4.65 3.99 3.53 3.25 3.09 2.71 2.28 2.03 1.81 1.64 1.51
2.93 3.00 3.24 3.15 3.17 3.27 3.07 3.17 3.49 3.34 2.96 3.37 3.71 3.68 2.85 2.29 1.80 1.29 1.45 1.54 1.64 1.80 1.79 1.87 2.33 2.88 2.79 2.86 2.57 2.42 3.08 3.91 4.45 4.49 4.14 3.79 3.53 3.18 2.80 2.49 2.16 1.86 1.61
2.97 3.04 2.99 2.95 3.05 2.99 2.96 2.97 3.17 3.28 3.10 3.10 3.49 3.85 3.23 2.54 2.00 1.50 1.41 1.37 1.64 1.97 1.95 1.93 2.11 2.48 2.65 2.91 3.04 2.86 2.62 2.89 3.77 4.84 5.00 4.37 3.59 3.02 2.76 2.72 2.64 2.35 2.12
3.23 3.01 2.83 2.78 2.77 2.69 2.78 2.55 2.85 3.08 3.21 2.92 3.05 3.10 2.96 2.87 2.70 2.02 1.59 1.45 1.70 1.92 2.04 2.01 2.09 2.30 2.47 2.80 3.09 2.91 2.41 2.21 2.66 3.81 4.59 4.55 3.95 3.17 2.79 2.94 3.29 3.17 2.78
3.27 2.91 2.85 2.83 2.78 2.66 2.55 2.48 2.70 2.66 2.78 2.79 2.82 2.85 2.91 2.88 2.68 2.42 2.03 1.85 1.77 1.54 1.56 1.72 1.96 2.21 2.33 2.57 2.91 2.78 2.53 2.43 2.39 2.58 3.02 3.43 3.66 3.44 3.14 3.19 3.66 3.92 3.73
2.85 2.63 2.57 2.60 2.52 2.53 2.51 2.48 2.51 2.48 2.56 2.66 2.67 2.66 2.79 2.80 2.73 2.74 2.43 2.18 1.96 1.66 1.57 1.64 1.80 1.97 2.07 2.18 2.23 2.40 2.34 2.32 2.19 2.09 2.12 2.23 2.54 2.92 3.19 3.48 3.95 4.37 4.57
2.11 2.11 2.20 2.27 2.21 2.25 2.27 2.41 2.35 2.28 2.38 2.54 2.52 2.50 2.58 2.60 2.65 2.76 2.68 2.22 2.04 1.86 1.90 1.74 1.63 1.80 1.85 2.07 2.25 2.23 1.96 1.95 1.80 1.72 1.74 1.80 1.98 2.24 2.48 2.76 3.29 3.89 4.34
1.83 1.92 2.02 2.01 1.97 1.99 1.95 2.22 2.09 2.05 2.16 2.23 2.13 2.44 2.45 2.21 2.42 2.60 2.67 2.67 2.45 2.27 2.29 2.01 1.76 1.75 1.87 2.02 2.17 2.12 1.82 1.71 1.50 1.38 1.39 1.41 1.46 1.63 1.87 2.14 2.42 2.75 3.11
1.82 1.91 1.90 1.94 1.94 1.98 2.04 2.16 2.02 1.97 2.17 2.13 2.08 2.31 2.26 2.11 2.21 2.33 2.56 2.77 2.92 2.70 2.52 2.32 2.00 1.81 1.82 1.89 2.13 1.97 1.97 1.83 1.52 1.40 1.33 1.27 1.23 1.29 1.45 1.66 1.85 2.05 2.31
1.89 1.93 1.93 2.01 1.94 1.90 1.94 1.99 1.78 1.80 2.03 2.09 2.16 2.35 2.31 2.21 2.28 2.34 2.50 2.80 3.10 3.09 2.67 2.19 2.02 1.93 2.01 1.95 2.17 1.93 1.86 1.90 1.63 1.40 1.29 1.28 1.25 1.25 1.32 1.47 1.64 1.80 1.95
1.91 1.87 1.84 1.84 1.85 1.82 1.87 1.90 1.69 1.83 2.00 2.04 2.06 2.22 2.27 2.39 2.45 2.45 2.56 2.71 2.99 3.23 2.90 2.35 2.23 2.22 2.34 2.31 2.21 1.98 1.75 1.66 1.50 1.44 1.30 1.23 1.21 1.24 1.29 1.35 1.48 1.63 1.72
1.89 1.91 1.91 1.86 1.75 1.77 1.96 2.02 1.89 1.98 2.08 2.07 2.10 2.23 2.14 2.30 2.48 2.43 2.54 2.56 2.68 3.02 2.90 2.63 2.58 2.52 2.49 2.38 2.38 2.21 1.89 1.71 1.64 1.61 1.39 1.28 1.25 1.22 1.24 1.26 1.36 1.53 1.67
1.95 2.03 2.05 2.05 2.02 2.04 2.06 2.14 2.22 2.18 2.11 2.04 2.09 2.10 2.06 2.25 2.26 2.35 2.48 2.47 2.46 2.63 2.81 2.74 2.69 2.77 2.72 2.61 2.55 2.38 2.19 2.12 1.80 1.71 1.62 1.52 1.50 1.47 1.43 1.42 1.42 1.48 1.59
2.00 2.11 2.13 2.25 2.41 2.45 2.44 2.40 2.31 2.23 2.18 2.14 2.10 2.05 2.01 2.03 2.06 2.15 2.27 2.39 2.47 2.60 2.74 2.78 2.82 2.94 2.91 2.96 2.95 2.74 2.59 2.50 2.16 1.79 1.79 1.68 1.62 1.51 1.43 1.36 1.33 1.38 1.49
1.85 2.16 2.32 2.41 2.68 2.80 2.61 2.62 2.55 2.43 2.43 2.25 2.12 2.02 1.89 1.90 1.96 1.99 1.95 2.08 2.24 2.39 2.43 2.53 2.64 2.86 2.91 3.02 3.01 2.85 2.72 2.72 2.53 2.09 1.92 1.79 1.72 1.61 1.57 1.53 1.43 1.37 1.38
1.75 1.93 2.07 2.19 2.24 2.08 2.23 2.26 2.24 2.29 2.32 2.21 2.14 2.07 1.92 1.82 1.79 1.74 1.64 1.67 1.78 1.91 2.12 2.35 2.45 2.65 2.85 3.02 3.23 3.26 3.09 2.90 2.74 2.45 2.33 2.19 1.93 1.85 1.68 1.51 1.49 1.31 1.18
1.72 1.80 1.84 1.89 1.86 1.91 1.95 1.73 1.68 1.66 1.85 1.96 2.03 2.01 1.77 1.62 1.71 1.62 1.64 1.60 1.61 1.73 1.85 2.11 2.30 2.40 2.66 2.87 3.12 3.25 3.24 3.13 2.95 2.77 2.62 2.50 2.17 1.95 1.74 1.61 1.53 1.25 1.10
1.80 1.79 1.83 1.87 1.94 1.91 1.81 1.58 1.57 1.53 1.66 1.78 1.85 1.88 1.85 1.78 1.77 1.81 1.72 1.60 1.51 1.59 1.69 1.66 1.73 1.91 2.20 2.59 2.76 2.81 2.99 3.03 2.90 2.71 2.61 2.57 2.30 2.07 1.86 1.74 1.66 1.35 1.16
2.04 2.00 2.07 2.10 2.06 1.96 1.82 1.62 1.62 1.58 1.68 1.72 1.72 1.73 1.74 1.69 1.78 1.65 1.55 1.54 1.53 1.57 1.55 1.51 1.47 1.51 1.67 1.90 2.25 2.42 2.54 2.51 2.40 2.16 2.03 2.09 2.06 2.03 1.97 1.85 1.68 1.54 1.32
2.48 2.49 2.37 2.22 2.09 1.97 1.93 1.64 1.56 1.50 1.59 1.67 1.74 1.68 1.61 1.50 1.49 1.43 1.40 1.52 1.51 1.52 1.55 1.48 1.37 1.29 1.25 1.41 1.75 1.95 2.07 2.13 2.03 1.95 1.68 1.66 1.70 1.76 1.88 1.74 1.59 1.52 1.45